GW0275 Weather Reports


Display with metric or nautical units.
time (UTC)temp
F
wind
direction
speed
MPH
gust
MPH
rain 1hr
in
rain 24hr
in
rain mn
in
humidity
%
barometer
mb
20260504044536 40 117 6.0 21.0 0.02 0.69 0.02 94 975.0
20260504043035 40 141 10.0 27.0 0.01 0.68 0.01 94 976.0
20260504041535 40 109 12.0 32.0 0.01 0.68 0.01 94 976.4
20260504040041 40 153 15.0 29.0 0.00 0.67 0.00 94 977.0
20260504034531 40 136 11.0 25.0 0.00 0.67 0.00 93 978.4
20260504033038 40 136 12.0 22.0 0.00 0.67 0.00 93 979.2
20260504031543 40 142 12.0 23.0 0.00 0.67 0.00 92 979.7
20260504030036 41 141 12.0 24.0 0.00 0.67 0.00 91 980.3
20260504024534 42 164 15.0 25.0 0.00 0.67 0.67 90 981.1
20260504023032 42 129 14.0 33.0 0.01 0.67 0.67 90 981.6
20260504021538 42 176 11.0 27.0 0.01 0.67 0.67 91 982.2
20260504020041 43 165 15.0 27.0 0.02 0.67 0.67 94 982.6
20260504014536 43 135 11.0 20.0 0.03 0.67 0.67 96 983.2
20260504013037 42 127 8.0 14.0 0.04 0.66 0.66 96 984.3
20260504011535 41 90 9.0 22.0 0.05 0.66 0.66 96 984.9
20260504010034 41 78 11.0 19.0 0.06 0.65 0.65 96 985.2
20260504004545 41 77 9.0 21.0 0.08 0.64 0.64 96 986.5
20260504003043 40 66 12.0 27.0 0.10 0.62 0.62 96 986.9
20260504001541 39 74 11.0 19.0 0.15 0.60 0.60 96 988.1
20260504000054 38 72 9.0 21.0 0.19 0.58 0.58 96 988.8
20260503234549 38 69 12.0 20.0 0.23 0.56 0.56 96 989.4
20260503233038 38 66 8.0 17.0 0.20 0.51 0.51 96 990.1
20260503231536 39 50 7.0 19.0 0.16 0.45 0.45 96 991.3
20260503230036 39 34 9.0 19.0 0.15 0.40 0.40 96 992.4
20260503224533 39 40 9.0 16.0 0.09 0.32 0.32 96 993.0
20260503223039 38 72 10.0 18.0 0.11 0.31 0.31 96 994.2
20260503221546 38 74 7.0 16.0 0.13 0.28 0.28 96 995.0
20260503220039 38 53 5.0 14.0 0.15 0.25 0.25 96 995.5
20260503214536 38 78 7.0 13.0 0.18 0.23 0.23 96 995.9
20260503213035 37 67 8.0 18.0 0.14 0.19 0.19 96 996.3
20260503211535 36 61 7.0 17.0 0.10 0.14 0.14 95 995.7
20260503210032 36 86 8.0 17.0 0.05 0.09 0.09 95 997.3
20260503204534 36 57 9.0 17.0 0.01 0.05 0.05 95 998.3
20260503203044 36 66 6.0 16.0 0.01 0.05 0.05 94 998.9
20260503201539 36 70 9.0 19.0 0.01 0.04 0.04 94 999.8
20260503200036 36 73 8.0 17.0 0.01 0.04 0.04 94 1000.8
20260503194537 37 15 8.0 16.0 0.01 0.04 0.04 93 1001.2
20260503193032 37 50 6.0 17.0 0.04 0.04 0.04 93 1001.5
20260503191541 38 19 7.0 17.0 0.03 0.03 0.03 92 1002.7
20260503190041 39 55 6.0 13.0 0.03 0.03 0.03 92 1003.7
20260503184536 39 38 5.0 12.0 0.03 0.03 0.03 90 1004.3
20260503183035 40 67 4.0 10.0 0.00 0.00 0.00 88 1005.7
20260503181535 41 77 5.0 14.0 0.00 0.00 0.00 85 1005.7
20260503180033 42 34 6.0 13.0 0.00 0.00 0.00 84 1006.3
20260503174535 42 19 4.0 9.0 0.00 0.00 0.00 84 1007.3
20260503173050 42 19 4.0 10.0 0.00 0.00 0.00 83 1008.0
20260503171539 43 55 4.0 9.0 0.00 0.00 0.00 82 1008.4
20260503081535 32 0 0.0 0.0 0.00 0.01 0.00 96 1015.8
20260503071537 33 0 0.0 2.0 0.00 0.02 0.00 97 1015.9
20260503054537 34 208 0.0 3.0 0.00 0.39 0.00 96 1016.1